Location: Alpine
(43.1636°N, 111.0180°W)
Time: 04:51:47
(UTC+00:00)

Tiros 1 despin weight - Pass Details

Date: 30 May 2022
Orbit: 591 x 639 km, 48.2° (Epoch: 30 June)

Event Time Altitude Azimuth Distance (km) Brightness Sun altitude
Rises 05:46:58 0° 293° (WNW) 2,844 ? -21.5°
Reaches altitude 10° 05:49:18 10° 289° (WNW) 1,933 ? -21.7°
Enters shadow 05:53:24 50° 224° (SW) 755 ? -22.0°
Maximum altitude 05:53:36 51° 213° (SSW) 750 - -22.0°
Drops below altitude 10° 05:57:50 10° 138° (SE) 1,911 - -22.3°
Sets 06:00:08 0° 133° (SE) 2,809 - -22.4°
